EUTELSAT HOTBIRD 13E

Last updated on Thu Jul 03 2025 00:02:44 GMT+0000 (Coordinated Universal Time)

1 28946U 06007B 25183.63013691 -.00000126 00000+0 00000+0 0 9998 2 28946 1.1671 89.9577 0005766 192.5189 350.0867 0.98118350 70811
UTC large
Height (km)
Speed (km/s)
/
Latitude / Longitude
Inclination (degrees)
Orbital Period (minutes)
Azimuth
Elevation
Range (km)
Doppler Factor

Next 0 passes for location: London (51.5072 / 0.1276)

Sorry there are no passes over London.